King Salmon, AK

4:38 AM AKDT on March 24, 2017 (GMT -0800)
King Salmon

Weather History for PAKN - November, 2012

Change the Weather History Date:

Sunday, November 11, 2012

  Actual Average Record
Temperature  
Mean Temperature 32 °F 24 °F  
Max Temperature 38 °F 31 °F 48 °F (2014)
Min Temperature 26 °F 16 °F -13 °F (1956)
Degree Days  
Heating Degree Days 33 41  
Month to date heating degree days 465 439  
Since 1 July heating degree days 2826 2553  
Cooling Degree Days 0 0  
Month to date cooling degree days 0 0  
Year to date cooling degree days 0 1  
Moisture  
Dew Point 32 °F    
Average Humidity 0    
Maximum Humidity 0    
Minimum Humidity 0    
Precipitation  
Precipitation T in 0.05 in 0.98 in (2003)
Month to date precipitation 0.86 0.54  
Year to date precipitation 22.77 17.41  
Snow  
Snow 0.00 in 0.20 in 4.60 in (2003)
Month to date snowfall 0.4 2.0  
Since 1 July snowfall 12.0 4.9  
Since 1 September snowfall 12.0 4.9  
Snow Depth 0.00 in    
Sea Level Pressure  
Sea Level Pressure 29.74 in    
Wind  
Wind Speed 3 mph (South)    
Max Wind Speed 10 mph    
Max Gust Speed 13 mph    
Visibility 7 miles    
Events Fog , Rain    
T = Trace of Precipitation, MM = Missing Value Source: NWS Daily Summary

Daily Weather History Graph

Daily Weather History Graph

Search for Another Location

Airport or City:

Trip Planner

Search our weather history database for the weather conditions in past years. The results will help you decide how hot, cold, wet, or windy it might be!

Date:

Astronomy

Nov. 11, 2012 Rise Set
Actual Time 9:09 AM AKST 5:11 PM AKST
Civil Twilight 8:23 AM AKST 5:57 PM AKST
Nautical Twilight 7:34 AM AKST 6:46 PM AKST
Astronomical Twilight 6:47 AM AKST 7:32 PM AKST
Moon 6:10 AM AKST (11/11) 4:02 PM AKST (11/11)
Length of Visible Light 9h 33m
Length of Day
8h 02m
Waning Crescent, 6% of the Moon is Illuminated
Nov 11
Waning Crescent
Nov 13
New
Nov 20
First Quarter
Nov 28
Full
Dec 6
Last Quarter

Hourly Weather History & Observations

Time (AKST) Temp. Windchill Dew Point Humidity Pressure Visibility Wind Dir Wind Speed Gust Speed Precip Events Conditions
12:54 AM 30.0 °F - 28.0 °F 92% 29.59 in 10.0 mi Calm Calm - N/A   Partly Cloudy
1:54 AM 28.9 °F - 27.0 °F 92% 29.60 in 10.0 mi Calm Calm - N/A   Clear
3:54 AM 28.9 °F 25.2 °F 28.0 °F 96% 29.61 in 10.0 mi WNW 3.5 mph - N/A   Overcast
4:54 AM 28.9 °F - 28.0 °F 96% 29.62 in 10.0 mi Calm Calm - N/A   Overcast
5:14 AM 28.4 °F - 28.4 °F 100% 29.61 in 10.0 mi Calm Calm - N/A   Overcast
5:54 AM 28.9 °F - 28.0 °F 96% 29.63 in 10.0 mi Calm Calm - N/A   Overcast
6:54 AM 28.9 °F - 28.0 °F 96% 29.64 in 10.0 mi Calm Calm - N/A   Overcast
7:54 AM 28.0 °F 24.2 °F 27.0 °F 96% 29.65 in 10.0 mi SSE 3.5 mph - N/A   Mostly Cloudy
8:03 AM 26.6 °F 22.6 °F 26.6 °F 100% 29.64 in 10.0 mi SE 3.5 mph - N/A   Mostly Cloudy
8:22 AM 28.4 °F 23.3 °F 26.6 °F 93% 29.65 in 10.0 mi SE 4.6 mph - N/A   Mostly Cloudy
8:33 AM 28.4 °F 24.6 °F 26.6 °F 93% 29.66 in 10.0 mi SSE 3.5 mph - N/A   Mostly Cloudy
8:54 AM 28.0 °F 24.2 °F 27.0 °F 96% 29.67 in 10.0 mi SE 3.5 mph - N/A   Mostly Cloudy
9:54 AM 28.0 °F - 27.0 °F 96% 29.68 in 10.0 mi Calm Calm - N/A   Mostly Cloudy
10:54 AM 30.0 °F 26.5 °F 28.9 °F 96% 29.70 in 10.0 mi SSE 3.5 mph - N/A   Mostly Cloudy
11:54 AM 30.9 °F 27.5 °F 30.0 °F 96% 29.72 in 10.0 mi SE 3.5 mph - N/A   Mostly Cloudy
12:54 PM 33.1 °F 30.0 °F 32.0 °F 96% 29.73 in 10.0 mi SE 3.5 mph - N/A   Overcast
1:54 PM 35.1 °F 31.0 °F 35.1 °F 100% 29.73 in 10.0 mi SE 4.6 mph - N/A   Overcast
2:10 PM 35.6 °F 30.7 °F 35.6 °F 100% 29.73 in 10.0 mi SSE 5.8 mph - N/A   Overcast
2:54 PM 37.0 °F 32.4 °F 36.0 °F 96% 29.74 in 10.0 mi SSE 5.8 mph - 0.00 in   Overcast
3:54 PM 37.9 °F 34.4 °F 37.0 °F 97% 29.76 in 10.0 mi SSE 4.6 mph - N/A   Overcast
4:34 PM 37.4 °F 33.8 °F 37.4 °F 100% 29.76 in 1.8 mi South 4.6 mph - N/A   Overcast
4:43 PM 37.4 °F 32.8 °F 37.4 °F 100% 29.76 in 0.2 mi South 5.8 mph - N/A Fog Fog
4:54 PM 37.0 °F 32.4 °F 37.0 °F 100% 29.77 in 0.2 mi South 5.8 mph - N/A Fog Fog
5:38 PM 37.4 °F 32.8 °F 37.4 °F 100% 29.78 in 1.0 mi South 5.8 mph - N/A   Mostly Cloudy
5:43 PM 37.4 °F 32.1 °F 37.4 °F 100% 29.78 in 10.0 mi SSW 6.9 mph - N/A Fog Mostly Cloudy
5:54 PM 37.0 °F 31.6 °F 36.0 °F 96% 29.79 in 10.0 mi SSW 6.9 mph - N/A   Mostly Cloudy
6:54 PM 34.0 °F 27.2 °F 34.0 °F 100% 29.81 in 4.0 mi SW 8.1 mph - N/A   Overcast
7:54 PM 33.1 °F 28.7 °F 33.1 °F 100% 29.82 in 2.0 mi SW 4.6 mph - N/A   Overcast
8:54 PM 33.1 °F 27.7 °F 33.1 °F 100% 29.84 in 1.5 mi SW 5.8 mph - 0.00 in   Light Drizzle
9:25 PM 33.8 °F 29.6 °F 33.8 °F 100% 29.85 in 2.0 mi WSW 4.6 mph - 0.00 in   Light Drizzle
9:38 PM 33.8 °F 28.6 °F 33.8 °F 100% 29.86 in 1.8 mi SW 5.8 mph - 0.00 in   Light Drizzle
9:54 PM 33.1 °F 28.7 °F 33.1 °F 100% 29.87 in 1.5 mi SW 4.6 mph - 0.00 in   Light Drizzle
10:54 PM 33.1 °F 28.7 °F 33.1 °F 100% 29.90 in 1.8 mi SW 4.6 mph - 0.00 in   Light Drizzle
11:00 PM 33.8 °F 30.8 °F 33.8 °F 100% 29.89 in 2.0 mi SW 3.5 mph - 0.00 in   Light Drizzle
11:36 PM 33.8 °F 29.6 °F 32.0 °F 93% 29.91 in 1.8 mi WSW 4.6 mph - 0.00 in   Light Drizzle
11:52 PM 33.8 °F 30.8 °F 33.8 °F 100% 29.92 in 2.5 mi WSW 3.5 mph - 0.00 in   Light Drizzle
11:53 PM 33.1 °F 30.0 °F 33.1 °F 100% 29.93 in 2.5 mi WSW 3.5 mph - 0.00 in   Light Drizzle